Time,TemperatureF,DewpointF,PressureIn,WindDirection,WindDirectionDegrees,WindSpeedMPH,WindSpeedGustMPH,Humidity,HourlyPrecipIn,Conditions,Clouds,dailyrainin,SoftwareType,DateUTC
2013-06-16 00:01:00,76.7,74.8,29.93,SSW,193,0.0,0.0,94,0.00,,---,0.00,VWS V14.01,2013-06-16 05:01:00,
2013-06-16 00:06:00,76.6,74.8,29.94,SSW,193,0.0,0.0,94,0.00,,---,0.00,VWS V14.01,2013-06-16 05:06:00,
2013-06-16 00:11:00,76.6,74.8,29.94,SSW,193,0.0,0.0,94,0.00,,---,0.00,VWS V14.01,2013-06-16 05:11:00,
2013-06-16 00:16:00,76.5,74.7,29.94,SSW,193,0.0,0.0,94,0.00,,---,0.00,VWS V14.01,2013-06-16 05:16:00,
2013-06-16 00:21:00,76.5,74.7,29.94,SSW,193,0.0,0.0,94,0.00,,---,0.00,VWS V14.01,2013-06-16 05:21:00,
2013-06-16 00:26:00,76.4,74.6,29.94,SSW,193,0.0,0.0,94,0.00,,---,0.00,VWS V14.01,2013-06-16 05:26:00,
2013-06-16 00:31:00,76.3,74.4,29.94,SSW,193,0.0,0.0,94,0.00,,---,0.00,VWS V14.01,2013-06-16 05:31:00,
2013-06-16 00:36:00,76.2,74.3,29.94,SSW,193,0.0,0.0,94,0.00,,---,0.00,VWS V14.01,2013-06-16 05:36:00,
2013-06-16 00:41:00,76.2,74.3,29.94,SSW,193,0.0,0.0,94,0.00,,---,0.00,VWS V14.01,2013-06-16 05:41:00,
2013-06-16 00:46:00,76.1,74.2,29.94,SSW,193,0.0,0.0,94,0.00,,---,0.00,VWS V14.01,2013-06-16 05:46:00,
2013-06-16 00:51:00,76.1,74.2,29.93,SSW,193,0.0,0.0,94,0.00,,---,0.00,VWS V14.01,2013-06-16 05:51:00,
2013-06-16 00:56:00,76.1,74.2,29.93,SSW,193,0.0,0.0,94,0.00,,---,0.00,VWS V14.01,2013-06-16 05:56:00,
2013-06-16 01:01:00,76.0,74.2,29.93,SSW,193,0.0,0.0,94,0.00,,---,0.00,VWS V14.01,2013-06-16 06:01:00,
2013-06-16 01:06:00,76.0,74.2,29.93,SSW,193,0.0,0.0,94,0.00,,---,0.00,VWS V14.01,2013-06-16 06:06:00,
2013-06-16 01:11:00,75.9,74.1,29.93,SSW,193,0.0,0.0,94,0.00,,---,0.00,VWS V14.01,2013-06-16 06:11:00,
2013-06-16 01:16:00,75.7,73.8,29.93,SSW,193,0.0,0.0,94,0.00,,---,0.00,VWS V14.01,2013-06-16 06:16:00,
2013-06-16 01:21:00,75.6,73.8,29.93,SSW,193,0.0,0.0,94,0.00,,---,0.00,VWS V14.01,2013-06-16 06:21:00,
2013-06-16 01:26:00,75.7,74.2,29.93,SSW,193,0.0,0.0,95,0.00,,---,0.00,VWS V14.01,2013-06-16 06:26:00,
2013-06-16 01:31:00,75.7,74.2,29.93,SSW,193,0.0,0.0,95,0.00,,---,0.00,VWS V14.01,2013-06-16 06:31:00,
2013-06-16 01:36:00,75.7,74.2,29.92,SSW,193,0.0,0.0,95,0.00,,---,0.00,VWS V14.01,2013-06-16 06:36:00,
2013-06-16 01:41:00,75.7,74.2,29.93,SSW,193,0.0,0.0,95,0.00,,---,0.00,VWS V14.01,2013-06-16 06:41:00,
2013-06-16 01:46:00,75.7,74.2,29.92,SSW,193,0.0,0.0,95,0.00,,---,0.00,VWS V14.01,2013-06-16 06:46:00,
2013-06-16 01:51:00,75.7,74.2,29.92,SSW,193,0.0,0.0,95,0.00,,---,0.00,VWS V14.01,2013-06-16 06:51:00,
2013-06-16 01:56:00,75.7,74.2,29.92,SSW,193,0.0,0.0,95,0.00,,---,0.00,VWS V14.01,2013-06-16 06:56:00,
2013-06-16 02:01:00,75.6,74.1,29.92,SSW,193,0.0,0.0,95,0.00,,---,0.00,VWS V14.01,2013-06-16 07:01:00,
2013-06-16 02:06:00,75.6,74.1,29.92,SSW,193,0.0,0.0,95,0.00,,---,0.00,VWS V14.01,2013-06-16 07:06:00,
2013-06-16 02:11:00,75.5,74.0,29.92,SSW,193,0.0,0.0,95,0.00,,---,0.00,VWS V14.01,2013-06-16 07:11:00,
2013-06-16 02:16:00,75.5,74.0,29.91,SSW,193,0.0,0.0,95,0.00,,---,0.00,VWS V14.01,2013-06-16 07:16:00,
2013-06-16 02:21:00,75.5,74.0,29.91,SSW,193,0.0,0.0,95,0.00,,---,0.00,VWS V14.01,2013-06-16 07:21:00,
2013-06-16 02:26:00,75.4,73.9,29.91,SSW,193,0.0,0.0,95,0.00,,---,0.00,VWS V14.01,2013-06-16 07:26:00,
2013-06-16 02:31:00,75.4,73.9,29.91,SSW,193,0.0,0.0,95,0.00,,---,0.00,VWS V14.01,2013-06-16 07:31:00,
2013-06-16 02:36:00,75.3,73.8,29.91,SSW,193,0.0,0.0,95,0.00,,---,0.00,VWS V14.01,2013-06-16 07:36:00,
2013-06-16 02:41:00,75.3,73.8,29.91,SSW,193,0.0,0.0,95,0.00,,---,0.00,VWS V14.01,2013-06-16 07:41:00,
2013-06-16 02:46:00,75.4,73.9,29.91,SSW,193,0.0,0.0,95,0.00,,---,0.00,VWS V14.01,2013-06-16 07:46:00,
2013-06-16 02:51:00,75.5,74.0,29.91,SSW,193,0.0,0.0,95,0.00,,---,0.00,VWS V14.01,2013-06-16 07:51:00,
2013-06-16 02:56:00,75.5,74.0,29.91,SSW,193,0.0,0.0,95,0.00,,---,0.00,VWS V14.01,2013-06-16 07:56:00,
2013-06-16 03:01:00,75.3,73.8,29.91,SSW,193,0.0,0.0,95,0.00,,---,0.00,VWS V14.01,2013-06-16 08:01:00,
2013-06-16 03:06:00,75.3,73.8,29.92,SSW,193,0.0,0.0,95,0.00,,---,0.00,VWS V14.01,2013-06-16 08:06:00,
2013-06-16 03:11:00,75.2,73.7,29.92,SSW,193,0.0,0.0,95,0.00,,---,0.00,VWS V14.01,2013-06-16 08:11:00,
2013-06-16 03:16:00,75.2,73.7,29.92,SSW,193,0.0,0.0,95,0.00,,---,0.00,VWS V14.01,2013-06-16 08:16:00,
2013-06-16 03:21:00,75.2,73.7,29.91,SSW,193,0.0,0.0,95,0.00,,---,0.00,VWS V14.01,2013-06-16 08:21:00,
2013-06-16 03:26:00,75.1,73.6,29.91,SSW,193,0.0,0.0,95,0.00,,---,0.00,VWS V14.01,2013-06-16 08:26:00,
2013-06-16 03:31:00,75.0,73.5,29.92,SSW,193,0.0,0.0,95,0.00,,---,0.00,VWS V14.01,2013-06-16 08:31:00,
2013-06-16 03:36:00,75.1,73.9,29.91,SSW,193,0.0,0.0,96,0.00,,---,0.00,VWS V14.01,2013-06-16 08:36:00,
2013-06-16 03:41:00,75.1,73.9,29.91,SSW,193,0.0,0.0,96,0.00,,---,0.00,VWS V14.01,2013-06-16 08:41:00,
2013-06-16 03:46:00,75.0,73.8,29.91,SSW,193,0.0,0.0,96,0.00,,---,0.00,VWS V14.01,2013-06-16 08:46:00,
2013-06-16 03:51:00,74.9,73.4,29.91,SSW,193,0.0,0.0,95,0.00,,---,0.00,VWS V14.01,2013-06-16 08:51:00,
2013-06-16 03:56:00,74.8,73.3,29.91,SSW,193,0.0,0.0,95,0.00,,---,0.00,VWS V14.01,2013-06-16 08:56:00,
2013-06-16 04:01:00,74.8,73.3,29.91,SSW,193,0.0,0.0,95,0.00,,---,0.00,VWS V14.01,2013-06-16 09:01:00,
2013-06-16 04:06:00,74.8,73.3,29.92,SSW,193,1.0,1.0,95,0.00,,---,0.00,VWS V14.01,2013-06-16 09:06:00,
2013-06-16 04:11:00,74.9,73.7,29.92,SSW,193,0.0,1.0,96,0.00,,---,0.00,VWS V14.01,2013-06-16 09:11:00,
2013-06-16 04:16:00,75.1,73.9,29.92,SSW,193,0.0,1.0,96,0.00,,---,0.00,VWS V14.01,2013-06-16 09:16:00,
2013-06-16 04:21:00,75.1,73.9,29.92,SSW,193,0.0,1.0,96,0.00,,---,0.00,VWS V14.01,2013-06-16 09:21:00,
2013-06-16 04:26:00,75.1,73.9,29.92,SSW,193,0.0,1.0,96,0.00,,---,0.00,VWS V14.01,2013-06-16 09:26:00,
2013-06-16 04:31:00,75.2,74.0,29.92,SSW,193,0.0,1.0,96,0.00,,---,0.00,VWS V14.01,2013-06-16 09:31:00,
2013-06-16 04:36:00,75.4,74.2,29.92,SSW,193,0.0,1.0,96,0.00,,---,0.00,VWS V14.01,2013-06-16 09:36:00,
2013-06-16 04:41:00,75.4,74.2,29.92,SSW,193,0.0,1.0,96,0.00,,---,0.00,VWS V14.01,2013-06-16 09:41:00,
2013-06-16 04:46:00,75.4,74.2,29.93,SSW,193,0.0,1.0,96,0.00,,---,0.00,VWS V14.01,2013-06-16 09:46:00,
2013-06-16 04:51:00,75.4,74.2,29.92,SSW,193,0.0,1.0,96,0.00,,---,0.00,VWS V14.01,2013-06-16 09:51:00,
2013-06-16 04:56:00,75.3,74.1,29.92,SSW,193,0.0,1.0,96,0.00,,---,0.00,VWS V14.01,2013-06-16 09:56:00,
2013-06-16 05:01:00,75.2,74.0,29.92,SSW,193,0.0,0.0,96,0.00,,---,0.00,VWS V14.01,2013-06-16 10:01:00,
2013-06-16 05:06:00,75.2,74.0,29.93,SSW,193,0.0,0.0,96,0.00,,---,0.00,VWS V14.01,2013-06-16 10:06:00,
2013-06-16 05:11:00,75.3,74.1,29.92,SSW,193,0.0,0.0,96,0.00,,---,0.00,VWS V14.01,2013-06-16 10:11:00,
2013-06-16 05:16:00,75.5,74.3,29.93,SSW,193,0.0,0.0,96,0.00,,---,0.00,VWS V14.01,2013-06-16 10:16:00,
2013-06-16 05:21:00,75.5,74.3,29.93,SSW,193,0.0,0.0,96,0.00,,---,0.00,VWS V14.01,2013-06-16 10:21:00,
2013-06-16 05:26:00,75.4,74.2,29.93,SSW,193,0.0,0.0,96,0.00,,---,0.00,VWS V14.01,2013-06-16 10:26:00,
2013-06-16 05:31:00,75.3,74.1,29.93,SSW,193,0.0,0.0,96,0.00,,---,0.00,VWS V14.01,2013-06-16 10:31:00,
2013-06-16 05:36:00,75.3,74.1,29.93,SSW,193,0.0,0.0,96,0.00,,---,0.00,VWS V14.01,2013-06-16 10:36:00,
2013-06-16 05:41:00,75.1,73.9,29.93,SSW,193,0.0,0.0,96,0.00,,---,0.00,VWS V14.01,2013-06-16 10:41:00,
2013-06-16 05:46:00,75.0,73.8,29.93,SSW,193,0.0,0.0,96,0.00,,---,0.00,VWS V14.01,2013-06-16 10:46:00,
2013-06-16 05:51:00,75.0,73.8,29.93,SSW,193,0.0,0.0,96,0.00,,---,0.00,VWS V14.01,2013-06-16 10:51:00,
2013-06-16 05:56:00,74.9,73.7,29.93,SSW,193,0.0,0.0,96,0.00,,---,0.00,VWS V14.01,2013-06-16 10:56:00,
2013-06-16 06:01:00,75.0,73.8,29.94,SSW,193,0.0,0.0,96,0.00,,---,0.00,VWS V14.01,2013-06-16 11:01:00,
2013-06-16 06:06:00,75.0,73.8,29.94,SSW,193,0.0,0.0,96,0.00,,---,0.00,VWS V14.01,2013-06-16 11:06:00,
2013-06-16 06:11:00,75.1,73.9,29.94,SSW,193,0.0,0.0,96,0.00,,---,0.00,VWS V14.01,2013-06-16 11:11:00,
2013-06-16 06:16:00,75.1,73.9,29.94,SSW,193,0.0,0.0,96,0.00,,---,0.00,VWS V14.01,2013-06-16 11:16:00,
2013-06-16 06:21:00,75.1,73.9,29.94,SSW,193,0.0,0.0,96,0.00,,---,0.00,VWS V14.01,2013-06-16 11:21:00,
2013-06-16 06:26:00,75.2,74.0,29.94,SSW,193,0.0,0.0,96,0.00,,---,0.00,VWS V14.01,2013-06-16 11:26:00,
2013-06-16 06:31:00,75.4,74.2,29.94,SSW,193,0.0,0.0,96,0.00,,---,0.00,VWS V14.01,2013-06-16 11:31:00,
2013-06-16 06:36:00,75.7,74.5,29.94,SSW,193,0.0,0.0,96,0.00,,---,0.00,VWS V14.01,2013-06-16 11:36:00,
2013-06-16 06:41:00,75.8,74.6,29.95,SSW,193,0.0,0.0,96,0.00,,---,0.00,VWS V14.01,2013-06-16 11:41:00,
2013-06-16 06:46:00,76.1,74.9,29.95,SSW,193,0.0,0.0,96,0.00,,---,0.00,VWS V14.01,2013-06-16 11:46:00,
2013-06-16 06:51:00,76.4,75.5,29.95,SSW,193,0.0,0.0,97,0.00,,---,0.00,VWS V14.01,2013-06-16 11:51:00,
2013-06-16 06:56:00,76.6,75.7,29.95,SSW,193,0.0,0.0,97,0.00,,---,0.00,VWS V14.01,2013-06-16 11:56:00,
2013-06-16 07:01:00,76.7,75.5,29.95,SSW,193,0.0,1.0,96,0.00,,---,0.00,VWS V14.01,2013-06-16 12:01:00,
2013-06-16 07:06:00,76.9,75.7,29.95,South,176,0.0,1.0,96,0.00,,---,0.00,VWS V14.01,2013-06-16 12:06:00,
2013-06-16 07:11:00,77.2,76.0,29.95,South,176,0.0,1.0,96,0.00,,---,0.00,VWS V14.01,2013-06-16 12:11:00,
2013-06-16 07:16:00,77.5,76.3,29.95,South,176,0.0,1.0,96,0.00,,---,0.00,VWS V14.01,2013-06-16 12:16:00,
2013-06-16 07:21:00,78.0,77.1,29.96,South,176,0.0,1.0,97,0.00,,---,0.00,VWS V14.01,2013-06-16 12:21:00,
2013-06-16 07:26:00,78.4,77.2,29.96,South,171,0.0,1.0,96,0.00,,---,0.00,VWS V14.01,2013-06-16 12:26:00,
2013-06-16 07:31:00,78.5,77.3,29.96,South,171,0.0,0.0,96,0.00,,---,0.00,VWS V14.01,2013-06-16 12:31:00,
2013-06-16 07:36:00,78.7,77.5,29.96,South,171,0.0,1.0,96,0.00,,---,0.00,VWS V14.01,2013-06-16 12:36:00,
2013-06-16 07:41:00,78.9,77.7,29.96,South,171,1.0,1.0,96,0.00,,---,0.00,VWS V14.01,2013-06-16 12:41:00,
2013-06-16 07:46:00,79.2,77.7,29.96,South,169,0.0,2.0,95,0.00,,---,0.00,VWS V14.01,2013-06-16 12:46:00,
2013-06-16 07:51:00,79.5,77.9,29.96,SSE,163,0.0,2.0,95,0.00,,---,0.00,VWS V14.01,2013-06-16 12:51:00,
2013-06-16 07:56:00,80.0,78.4,29.96,SSE,163,0.0,2.0,95,0.00,,---,0.00,VWS V14.01,2013-06-16 12:56:00,
2013-06-16 08:01:00,80.7,79.1,29.96,SSW,201,0.0,0.0,95,0.00,,---,0.00,VWS V14.01,2013-06-16 13:01:00,
2013-06-16 08:06:00,81.2,79.0,29.96,South,186,0.0,1.0,93,0.00,,---,0.00,VWS V14.01,2013-06-16 13:06:00,
2013-06-16 08:11:00,81.6,79.1,29.96,South,185,0.0,2.0,92,0.00,,---,0.00,VWS V14.01,2013-06-16 13:11:00,
2013-06-16 08:16:00,82.0,79.1,29.96,South,184,0.0,2.0,91,0.00,,---,0.00,VWS V14.01,2013-06-16 13:16:00,
2013-06-16 08:21:00,82.7,79.1,29.96,South,184,1.0,2.0,89,0.00,,---,0.00,VWS V14.01,2013-06-16 13:21:00,
2013-06-16 08:26:00,83.1,78.8,29.97,South,188,0.0,4.0,87,0.00,,---,0.00,VWS V14.01,2013-06-16 13:26:00,
2013-06-16 08:31:00,83.4,78.4,29.97,South,169,0.0,1.0,85,0.00,,---,0.00,VWS V14.01,2013-06-16 13:31:00,
2013-06-16 08:36:00,84.0,79.0,29.96,SSE,168,1.0,3.0,85,0.00,,---,0.00,VWS V14.01,2013-06-16 13:36:00,
2013-06-16 08:41:00,84.5,78.8,29.96,SSE,163,0.0,3.0,83,0.00,,---,0.00,VWS V14.01,2013-06-16 13:41:00,
2013-06-16 08:46:00,85.0,78.9,29.97,ESE,104,1.0,4.0,82,0.00,,---,0.00,VWS V14.01,2013-06-16 13:46:00,
2013-06-16 08:51:00,85.3,78.8,29.97,SE,138,1.0,4.0,81,0.00,,---,0.00,VWS V14.01,2013-06-16 13:51:00,
2013-06-16 08:56:00,85.4,78.5,29.97,South,180,0.0,4.0,80,0.00,,---,0.00,VWS V14.01,2013-06-16 13:56:00,
2013-06-16 09:01:00,85.7,78.4,29.97,SW,229,5.0,8.0,79,0.00,,---,0.00,VWS V14.01,2013-06-16 14:01:00,
2013-06-16 09:06:00,85.6,77.2,29.97,South,182,3.0,11.0,76,0.00,,---,0.00,VWS V14.01,2013-06-16 14:06:00,
2013-06-16 09:11:00,85.5,76.7,29.97,SSE,165,0.0,11.0,75,0.00,,---,0.00,VWS V14.01,2013-06-16 14:11:00,
2013-06-16 09:16:00,85.5,76.7,29.97,South,179,4.0,11.0,75,0.00,,---,0.00,VWS V14.01,2013-06-16 14:16:00,
2013-06-16 09:21:00,85.7,76.9,29.97,SSW,212,4.0,11.0,75,0.00,,---,0.00,VWS V14.01,2013-06-16 14:21:00,
2013-06-16 09:26:00,86.1,77.2,29.97,SSW,194,1.0,11.0,75,0.00,,---,0.00,VWS V14.01,2013-06-16 14:26:00,
2013-06-16 09:31:00,86.3,77.0,29.97,SSE,165,0.0,5.0,74,0.00,,---,0.00,VWS V14.01,2013-06-16 14:31:00,
2013-06-16 09:36:00,86.3,77.0,29.97,South,182,0.0,5.0,74,0.00,,---,0.00,VWS V14.01,2013-06-16 14:36:00,
2013-06-16 09:41:00,86.4,75.9,29.97,WSW,240,5.0,6.0,71,0.00,,---,0.00,VWS V14.01,2013-06-16 14:41:00,
2013-06-16 09:46:00,86.4,75.9,29.97,SW,217,0.0,6.0,71,0.00,,---,0.00,VWS V14.01,2013-06-16 14:46:00,
2013-06-16 09:51:00,86.6,76.1,29.97,SW,218,0.0,6.0,71,0.00,,---,0.00,VWS V14.01,2013-06-16 14:51:00,
2013-06-16 09:56:00,87.3,77.2,29.97,SW,218,0.0,6.0,72,0.00,,---,0.00,VWS V14.01,2013-06-16 14:56:00,
2013-06-16 10:00:00,87.8,76.4,29.97,SW,221,1.0,4.0,69,0.00,,---,0.00,VWS V14.01,2013-06-16 15:00:00,
2013-06-16 10:05:00,87.7,76.7,29.97,South,186,1.0,4.0,70,0.00,,---,0.00,VWS V14.01,2013-06-16 15:05:00,
2013-06-16 10:10:00,87.4,75.6,29.97,South,175,0.0,5.0,68,0.00,,---,0.00,VWS V14.01,2013-06-16 15:10:00,
2013-06-16 10:15:00,87.7,76.7,29.97,South,175,0.0,5.0,70,0.00,,---,0.00,VWS V14.01,2013-06-16 15:15:00,
2013-06-16 10:20:00,88.2,76.3,29.97,South,177,0.0,5.0,68,0.00,,---,0.00,VWS V14.01,2013-06-16 15:20:00,
2013-06-16 10:25:00,88.4,76.9,29.97,South,176,3.0,5.0,69,0.00,,---,0.00,VWS V14.01,2013-06-16 15:25:00,
2013-06-16 10:30:00,88.3,76.0,29.97,South,190,0.0,3.0,67,0.00,,---,0.00,VWS V14.01,2013-06-16 15:30:00,
2013-06-16 10:35:00,87.8,76.4,29.97,SSW,196,1.0,4.0,69,0.00,,---,0.00,VWS V14.01,2013-06-16 15:35:00,
2013-06-16 10:40:00,87.6,77.9,29.97,South,184,0.0,6.0,73,0.00,,---,0.00,VWS V14.01,2013-06-16 15:40:00,
2013-06-16 10:45:00,87.4,76.8,29.97,WSW,251,3.0,6.0,71,0.00,,---,0.00,VWS V14.01,2013-06-16 15:45:00,
2013-06-16 10:50:00,86.8,77.5,29.97,WSW,250,0.0,6.0,74,0.00,,---,0.00,VWS V14.01,2013-06-16 15:50:00,
2013-06-16 10:56:00,86.6,76.9,29.97,SW,232,0.0,6.0,73,0.00,,---,0.00,VWS V14.01,2013-06-16 15:56:00,
2013-06-16 11:01:00,86.5,76.8,29.96,SSE,159,0.0,2.0,73,0.00,,---,0.00,VWS V14.01,2013-06-16 16:01:00,
2013-06-16 11:06:00,86.4,77.1,29.96,SSW,211,1.0,4.0,74,0.00,,---,0.00,VWS V14.01,2013-06-16 16:06:00,
2013-06-16 11:11:00,86.6,77.7,29.96,South,171,1.0,4.0,75,0.00,,---,0.00,VWS V14.01,2013-06-16 16:11:00,
2013-06-16 11:15:00,87.0,77.7,29.96,South,183,0.0,5.0,74,0.00,,---,0.00,VWS V14.01,2013-06-16 16:15:00,
2013-06-16 11:20:00,86.8,77.5,29.96,South,186,0.0,6.0,74,0.00,,---,0.00,VWS V14.01,2013-06-16 16:20:00,
2013-06-16 11:25:00,86.8,76.7,29.95,South,187,0.0,6.0,72,0.00,,---,0.00,VWS V14.01,2013-06-16 16:25:00,
2013-06-16 11:30:00,87.4,77.3,29.95,South,186,0.0,1.0,72,0.00,,---,0.00,VWS V14.01,2013-06-16 16:30:00,
2013-06-16 11:35:00,88.0,77.4,29.95,South,177,2.0,2.0,71,0.00,,---,0.00,VWS V14.01,2013-06-16 16:35:00,
2013-06-16 11:40:00,88.1,77.5,29.95,East,101,1.0,5.0,71,0.00,,---,0.00,VWS V14.01,2013-06-16 16:40:00,
2013-06-16 11:45:00,88.0,76.6,29.96,East,82,3.0,5.0,69,0.00,,---,0.00,VWS V14.01,2013-06-16 16:45:00,
2013-06-16 11:50:00,87.9,76.9,29.95,East,82,0.0,5.0,70,0.00,,---,0.00,VWS V14.01,2013-06-16 16:50:00,
2013-06-16 11:55:00,87.9,76.9,29.95,SSW,200,0.0,5.0,70,0.00,,---,0.00,VWS V14.01,2013-06-16 16:55:00,
2013-06-16 12:00:00,88.2,76.8,29.94,ESE,115,0.0,2.0,69,0.00,,---,0.00,VWS V14.01,2013-06-16 17:00:00,
2013-06-16 12:05:00,88.5,76.6,29.94,SE,132,0.0,4.0,68,0.00,,---,0.00,VWS V14.01,2013-06-16 17:05:00,
2013-06-16 12:10:00,88.9,77.4,29.94,SE,132,0.0,4.0,69,0.00,,---,0.00,VWS V14.01,2013-06-16 17:10:00,
2013-06-16 12:15:00,89.3,77.4,29.94,SSW,197,0.0,5.0,68,0.00,,---,0.00,VWS V14.01,2013-06-16 17:15:00,
2013-06-16 12:20:00,89.4,76.6,29.94,SSE,166,4.0,5.0,66,0.00,,---,0.00,VWS V14.01,2013-06-16 17:20:00,
2013-06-16 12:25:00,89.3,76.9,29.94,SW,229,2.0,6.0,67,0.00,,---,0.00,VWS V14.01,2013-06-16 17:25:00,
2013-06-16 12:30:00,89.4,77.4,29.94,SW,229,4.0,4.0,68,0.00,,---,0.00,VWS V14.01,2013-06-16 17:30:00,
2013-06-16 12:35:00,89.7,79.1,29.94,SW,233,4.0,6.0,71,0.00,,---,0.00,VWS V14.01,2013-06-16 17:35:00,
2013-06-16 12:40:00,89.7,79.5,29.94,SSW,195,10.0,10.0,72,0.00,,---,0.00,VWS V14.01,2013-06-16 17:40:00,
2013-06-16 12:45:00,89.4,79.6,29.94,South,188,9.0,10.0,73,0.00,,---,0.00,VWS V14.01,2013-06-16 17:45:00,
2013-06-16 12:50:00,88.9,78.3,29.94,SSW,195,4.0,10.0,71,0.00,,---,0.00,VWS V14.01,2013-06-16 17:50:00,
2013-06-16 12:55:00,88.3,78.6,29.94,South,173,4.0,10.0,73,0.00,,---,0.00,VWS V14.01,2013-06-16 17:55:00,
2013-06-16 13:00:00,88.1,78.8,29.94,South,187,0.0,5.0,74,0.00,,---,0.00,VWS V14.01,2013-06-16 18:00:00,
2013-06-16 13:05:00,88.1,78.8,29.94,SSW,200,4.0,8.0,74,0.00,,---,0.00,VWS V14.01,2013-06-16 18:05:00,
2013-06-16 13:10:00,87.9,78.6,29.94,SSW,196,6.0,8.0,74,0.00,,---,0.00,VWS V14.01,2013-06-16 18:10:00,
2013-06-16 13:15:00,87.3,78.0,29.93,SSW,198,4.0,11.0,74,0.00,,---,0.00,VWS V14.01,2013-06-16 18:15:00,
2013-06-16 13:20:00,86.5,77.6,29.94,West,273,3.0,12.0,75,0.00,,---,0.00,VWS V14.01,2013-06-16 18:20:00,
2013-06-16 13:25:00,85.8,77.8,29.95,SSW,207,5.0,12.0,77,0.00,,---,0.00,VWS V14.01,2013-06-16 18:25:00,
2013-06-16 13:30:00,85.4,78.2,29.94,WSW,237,0.0,4.0,79,0.00,,---,0.00,VWS V14.01,2013-06-16 18:30:00,
2013-06-16 13:35:00,85.2,77.9,29.94,SSW,208,1.0,6.0,79,0.00,,---,0.00,VWS V14.01,2013-06-16 18:35:00,
2013-06-16 13:40:00,84.9,78.0,29.94,West,263,5.0,9.0,80,0.00,,---,0.00,VWS V14.01,2013-06-16 18:40:00,
2013-06-16 13:45:00,84.5,78.4,29.94,West,274,6.0,11.0,82,0.00,,---,0.00,VWS V14.01,2013-06-16 18:45:00,
2013-06-16 13:50:00,83.6,77.5,29.94,WNW,298,1.0,11.0,82,0.00,,---,0.00,VWS V14.01,2013-06-16 18:50:00,
2013-06-16 13:55:00,82.8,77.1,29.94,NW,311,0.0,11.0,83,0.00,,---,0.00,VWS V14.01,2013-06-16 18:55:00,
2013-06-16 14:00:00,81.7,76.0,29.95,NNW,341,3.0,8.0,83,0.00,,---,0.00,VWS V14.01,2013-06-16 19:00:00,
2013-06-16 14:05:00,80.8,75.5,29.95,NW,325,0.0,9.0,84,0.00,,---,0.00,VWS V14.01,2013-06-16 19:05:00,
2013-06-16 14:10:00,80.2,75.6,29.94,NNW,338,2.0,9.0,86,0.00,,---,0.00,VWS V14.01,2013-06-16 19:10:00,
2013-06-16 14:15:00,79.7,75.5,29.94,NNW,336,4.0,9.0,87,0.00,,---,0.00,VWS V14.01,2013-06-16 19:15:00,
2013-06-16 14:20:00,79.3,75.4,29.94,NNW,336,0.0,9.0,88,0.00,,---,0.00,VWS V14.01,2013-06-16 19:20:00,
2013-06-16 14:25:00,79.1,75.6,29.94,NNW,336,0.0,9.0,89,0.00,,---,0.00,VWS V14.01,2013-06-16 19:25:00,
2013-06-16 14:30:00,78.9,75.4,29.94,NNW,336,0.0,2.0,89,0.00,,---,0.00,VWS V14.01,2013-06-16 19:30:00,
2013-06-16 14:35:00,79.0,75.8,29.93,NNW,336,0.0,2.0,90,0.00,,---,0.00,VWS V14.01,2013-06-16 19:35:00,
2013-06-16 14:40:00,79.1,75.9,29.94,North,349,0.0,2.0,90,0.00,,---,0.00,VWS V14.01,2013-06-16 19:40:00,
2013-06-16 14:45:00,79.0,75.8,29.93,NE,49,0.0,2.0,90,0.00,,---,0.00,VWS V14.01,2013-06-16 19:45:00,
2013-06-16 14:50:00,79.2,76.3,29.92,NE,49,0.0,2.0,91,0.00,,---,0.00,VWS V14.01,2013-06-16 19:50:00,
2013-06-16 14:55:00,79.4,76.6,29.92,NE,49,0.0,2.0,91,0.00,,---,0.00,VWS V14.01,2013-06-16 19:55:00,
2013-06-16 15:00:00,79.9,77.0,29.92,NE,49,0.0,0.0,91,0.00,,---,0.00,VWS V14.01,2013-06-16 20:00:00,
2013-06-16 15:05:00,80.5,78.0,29.92,NE,49,0.0,0.0,92,0.00,,---,0.00,VWS V14.01,2013-06-16 20:05:00,
2013-06-16 15:10:00,81.2,78.3,29.92,NE,49,0.0,1.0,91,0.00,,---,0.00,VWS V14.01,2013-06-16 20:10:00,
2013-06-16 15:15:00,81.9,78.3,29.92,NE,49,0.0,1.0,89,0.00,,---,0.00,VWS V14.01,2013-06-16 20:15:00,
2013-06-16 15:20:00,82.8,78.9,29.92,NE,51,0.0,3.0,88,0.00,,---,0.00,VWS V14.01,2013-06-16 20:20:00,
2013-06-16 15:25:00,83.5,79.2,29.92,SSE,164,0.0,5.0,87,0.00,,---,0.00,VWS V14.01,2013-06-16 20:25:00,
2013-06-16 15:30:00,84.3,79.7,29.92,East,98,0.0,1.0,86,0.00,,---,0.00,VWS V14.01,2013-06-16 20:30:00,
2013-06-16 15:35:00,84.8,79.8,29.92,East,98,0.0,1.0,85,0.00,,---,0.00,VWS V14.01,2013-06-16 20:35:00,
2013-06-16 15:40:00,85.4,79.7,29.91,East,98,0.0,1.0,83,0.00,,---,0.00,VWS V14.01,2013-06-16 20:40:00,
2013-06-16 15:45:00,85.8,78.2,29.92,SSE,155,0.0,4.0,78,0.00,,---,0.00,VWS V14.01,2013-06-16 20:45:00,
2013-06-16 15:50:00,86.3,78.6,29.92,South,170,0.0,4.0,78,0.00,,---,0.00,VWS V14.01,2013-06-16 20:50:00,
2013-06-16 15:55:00,87.3,79.6,29.92,South,191,0.0,6.0,78,0.00,,---,0.00,VWS V14.01,2013-06-16 20:55:00,
2013-06-16 16:00:00,88.0,78.3,29.91,SE,126,4.0,6.0,73,0.00,,---,0.00,VWS V14.01,2013-06-16 21:00:00,
2013-06-16 16:05:00,88.1,77.9,29.91,South,190,2.0,9.0,72,0.00,,---,0.00,VWS V14.01,2013-06-16 21:05:00,
2013-06-16 16:10:00,88.2,78.9,29.91,SE,125,0.0,9.0,74,0.00,,---,0.00,VWS V14.01,2013-06-16 21:10:00,
2013-06-16 16:15:00,87.7,78.8,29.91,SSW,211,0.0,9.0,75,0.00,,---,0.00,VWS V14.01,2013-06-16 21:15:00,
2013-06-16 16:20:00,86.8,78.7,29.91,SW,235,0.0,9.0,77,0.00,,---,0.00,VWS V14.01,2013-06-16 21:20:00,
2013-06-16 16:25:00,86.3,78.6,29.91,SSW,211,0.0,9.0,78,0.00,,---,0.00,VWS V14.01,2013-06-16 21:25:00,
2013-06-16 16:30:00,85.9,79.0,29.91,SSW,208,0.0,6.0,80,0.00,,---,0.00,VWS V14.01,2013-06-16 21:30:00,
2013-06-16 16:35:00,85.6,79.1,29.91,SW,217,0.0,6.0,81,0.00,,---,0.00,VWS V14.01,2013-06-16 21:35:00,
2013-06-16 16:40:00,85.2,79.1,29.91,SW,229,2.0,6.0,82,0.00,,---,0.00,VWS V14.01,2013-06-16 21:40:00,
2013-06-16 16:45:00,84.9,78.8,29.91,SW,225,0.0,6.0,82,0.00,,---,0.00,VWS V14.01,2013-06-16 21:45:00,
2013-06-16 16:50:00,84.7,79.0,29.91,SW,236,1.0,6.0,83,0.00,,---,0.00,VWS V14.01,2013-06-16 21:50:00,
2013-06-16 16:55:00,84.5,78.8,29.91,SW,228,0.0,6.0,83,0.00,,---,0.00,VWS V14.01,2013-06-16 21:55:00,
2013-06-16 17:00:00,84.4,79.0,29.91,SSW,201,1.0,5.0,84,0.00,,---,0.00,VWS V14.01,2013-06-16 22:00:00,
2013-06-16 17:05:00,84.4,79.0,29.91,SSW,201,0.0,5.0,84,0.00,,---,0.00,VWS V14.01,2013-06-16 22:05:00,
2013-06-16 17:10:00,84.3,78.9,29.91,SSW,205,0.0,6.0,84,0.00,,---,0.00,VWS V14.01,2013-06-16 22:10:00,
2013-06-16 17:15:00,84.4,79.0,29.91,SSW,204,0.0,6.0,84,0.00,,---,0.00,VWS V14.01,2013-06-16 22:15:00,
2013-06-16 17:20:00,84.7,79.3,29.91,SSW,204,0.0,6.0,84,0.00,,---,0.00,VWS V14.01,2013-06-16 22:20:00,
2013-06-16 17:25:00,85.3,79.6,29.91,SSW,202,2.0,6.0,83,0.00,,---,0.00,VWS V14.01,2013-06-16 22:25:00,
2013-06-16 17:30:00,85.8,79.3,29.91,SSW,201,5.0,10.0,81,0.00,,---,0.00,VWS V14.01,2013-06-16 22:30:00,
2013-06-16 17:35:00,86.1,79.2,29.91,SSW,198,1.0,10.0,80,0.00,,---,0.00,VWS V14.01,2013-06-16 22:35:00,
2013-06-16 17:40:00,86.1,79.2,29.91,SW,217,0.0,10.0,80,0.00,,---,0.00,VWS V14.01,2013-06-16 22:40:00,
2013-06-16 17:45:00,85.9,79.0,29.91,SW,234,5.0,10.0,80,0.00,,---,0.00,VWS V14.01,2013-06-16 22:45:00,
2013-06-16 17:50:00,85.6,79.1,29.91,SW,231,0.0,10.0,81,0.00,,---,0.00,VWS V14.01,2013-06-16 22:50:00,
2013-06-16 17:55:00,85.5,79.0,29.92,SW,230,0.0,10.0,81,0.00,,---,0.00,VWS V14.01,2013-06-16 22:55:00,
2013-06-16 18:00:00,85.4,79.3,29.92,SSW,213,0.0,4.0,82,0.00,,---,0.00,VWS V14.01,2013-06-16 23:00:00,
2013-06-16 18:05:00,85.1,78.6,29.92,SSW,213,3.0,6.0,81,0.00,,---,0.00,VWS V14.01,2013-06-16 23:05:00,
2013-06-16 18:10:00,84.8,78.7,29.91,SE,137,0.0,6.0,82,0.00,,---,0.00,VWS V14.01,2013-06-16 23:10:00,
2013-06-16 18:15:00,84.5,78.4,29.91,West,271,1.0,6.0,82,0.00,,---,0.00,VWS V14.01,2013-06-16 23:15:00,
2013-06-16 18:20:00,84.3,78.6,29.92,West,268,0.0,6.0,83,0.00,,---,0.00,VWS V14.01,2013-06-16 23:20:00,
2013-06-16 18:25:00,84.2,78.5,29.91,West,268,0.0,6.0,83,0.00,,---,0.00,VWS V14.01,2013-06-16 23:25:00,
2013-06-16 18:30:00,84.0,78.3,29.92,West,268,1.0,1.0,83,0.00,,---,0.00,VWS V14.01,2013-06-16 23:30:00,
2013-06-16 18:35:00,83.9,78.2,29.91,West,268,0.0,2.0,83,0.00,,---,0.00,VWS V14.01,2013-06-16 23:35:00,
2013-06-16 18:40:00,83.8,78.1,29.91,West,267,0.0,2.0,83,0.00,,---,0.00,VWS V14.01,2013-06-16 23:40:00,
2013-06-16 18:45:00,83.7,78.3,29.91,West,265,1.0,3.0,84,0.00,,---,0.00,VWS V14.01,2013-06-16 23:45:00,
2013-06-16 18:50:00,83.7,78.3,29.92,West,262,0.0,3.0,84,0.00,,---,0.00,VWS V14.01,2013-06-16 23:50:00,
2013-06-16 18:55:00,83.6,78.3,29.91,SSW,200,0.0,3.0,84,0.00,,---,0.00,VWS V14.01,2013-06-16 23:55:00,
2013-06-16 19:00:00,83.5,78.2,29.91,SSW,200,0.0,0.0,84,0.00,,---,0.00,VWS V14.01,2013-06-17 00:00:00,
2013-06-16 19:05:00,83.6,78.3,29.91,SSW,200,0.0,2.0,84,0.00,,---,0.00,VWS V14.01,2013-06-17 00:05:00,
2013-06-16 19:10:00,83.6,77.9,29.92,SSW,201,0.0,2.0,83,0.00,,---,0.00,VWS V14.01,2013-06-17 00:10:00,
2013-06-16 19:15:00,83.6,77.9,29.91,SSW,201,0.0,2.0,83,0.00,,---,0.00,VWS V14.01,2013-06-17 00:15:00,
2013-06-16 19:20:00,83.6,77.9,29.92,SSW,201,1.0,2.0,83,0.00,,---,0.00,VWS V14.01,2013-06-17 00:20:00,
2013-06-16 19:25:00,83.5,77.8,29.92,SW,228,0.0,4.0,83,0.00,,---,0.00,VWS V14.01,2013-06-17 00:25:00,
2013-06-16 19:30:00,83.5,77.8,29.92,SW,229,1.0,1.0,83,0.00,,---,0.00,VWS V14.01,2013-06-17 00:30:00,
2013-06-16 19:35:00,83.4,77.7,29.92,SSW,203,0.0,6.0,83,0.00,,---,0.00,VWS V14.01,2013-06-17 00:35:00,
2013-06-16 19:40:00,83.4,78.1,29.92,SW,214,1.0,6.0,84,0.00,,---,0.00,VWS V14.01,2013-06-17 00:40:00,
2013-06-16 19:45:00,83.3,78.0,29.92,SW,214,0.0,6.0,84,0.00,,---,0.00,VWS V14.01,2013-06-17 00:45:00,
2013-06-16 19:50:00,83.3,78.0,29.92,SW,214,0.0,6.0,84,0.00,,---,0.00,VWS V14.01,2013-06-17 00:50:00,
2013-06-16 19:55:00,83.2,78.2,29.92,SW,214,0.0,6.0,85,0.00,,---,0.00,VWS V14.01,2013-06-17 00:55:00,
2013-06-16 20:00:00,83.1,78.1,29.92,SW,214,0.0,1.0,85,0.00,,---,0.00,VWS V14.01,2013-06-17 01:00:00,
2013-06-16 20:05:00,83.0,78.0,29.92,SSW,213,0.0,1.0,85,0.00,,---,0.00,VWS V14.01,2013-06-17 01:05:00,
2013-06-16 20:10:00,82.9,78.3,29.92,SSW,213,0.0,1.0,86,0.00,,---,0.00,VWS V14.01,2013-06-17 01:10:00,
2013-06-16 20:15:00,82.8,78.2,29.92,SSW,213,0.0,1.0,86,0.00,,---,0.00,VWS V14.01,2013-06-17 01:15:00,
2013-06-16 20:20:00,82.6,78.3,29.92,SSW,213,0.0,1.0,87,0.00,,---,0.00,VWS V14.01,2013-06-17 01:20:00,
2013-06-16 20:25:00,82.5,78.2,29.91,SSW,213,0.0,1.0,87,0.00,,---,0.00,VWS V14.01,2013-06-17 01:25:00,
2013-06-16 20:30:00,82.3,78.4,29.92,SSW,213,0.0,2.0,88,0.00,,---,0.00,VWS V14.01,2013-06-17 01:30:00,
2013-06-16 20:35:00,82.2,78.3,29.92,SSW,213,0.0,2.0,88,0.00,,---,0.00,VWS V14.01,2013-06-17 01:35:00,
2013-06-16 20:40:00,82.0,78.1,29.92,SSW,213,0.0,2.0,88,0.00,,---,0.00,VWS V14.01,2013-06-17 01:40:00,
2013-06-16 20:45:00,81.9,78.3,29.92,SW,214,1.0,3.0,89,0.00,,---,0.00,VWS V14.01,2013-06-17 01:45:00,
2013-06-16 20:50:00,81.8,78.2,29.92,SSW,213,0.0,3.0,89,0.00,,---,0.00,VWS V14.01,2013-06-17 01:50:00,
2013-06-16 20:55:00,81.8,78.2,29.92,SW,216,0.0,4.0,89,0.00,,---,0.00,VWS V14.01,2013-06-17 01:55:00,
2013-06-16 21:00:00,81.8,78.2,29.91,SSW,208,0.0,6.0,89,0.00,,---,0.00,VWS V14.01,2013-06-17 02:00:00,
2013-06-16 21:05:00,81.9,78.3,29.91,South,189,0.0,6.0,89,0.00,,---,0.00,VWS V14.01,2013-06-17 02:05:00,
2013-06-16 21:10:00,82.0,78.4,29.91,South,190,2.0,6.0,89,0.00,,---,0.00,VWS V14.01,2013-06-17 02:10:00,
2013-06-16 21:15:00,82.0,78.4,29.91,South,188,0.0,6.0,89,0.00,,---,0.00,VWS V14.01,2013-06-17 02:15:00,
2013-06-16 21:20:00,82.0,78.4,29.91,SSW,198,0.0,6.0,89,0.00,,---,0.00,VWS V14.01,2013-06-17 02:20:00,
2013-06-16 21:25:00,82.1,78.5,29.91,SSW,198,0.0,6.0,89,0.00,,---,0.00,VWS V14.01,2013-06-17 02:25:00,
2013-06-16 21:30:00,82.1,78.5,29.91,SSW,209,3.0,6.0,89,0.00,,---,0.00,VWS V14.01,2013-06-17 02:30:00,
2013-06-16 21:35:00,82.2,78.6,29.91,SW,219,0.0,7.0,89,0.00,,---,0.00,VWS V14.01,2013-06-17 02:35:00,
2013-06-16 21:40:00,82.3,78.4,29.91,SSW,197,0.0,7.0,88,0.00,,---,0.00,VWS V14.01,2013-06-17 02:40:00,
2013-06-16 21:45:00,82.3,78.4,29.91,SSW,206,7.0,9.0,88,0.00,,---,0.00,VWS V14.01,2013-06-17 02:45:00,
2013-06-16 21:50:00,82.5,78.6,29.92,SW,219,0.0,10.0,88,0.00,,---,0.00,VWS V14.01,2013-06-17 02:50:00,
2013-06-16 21:55:00,82.6,78.7,29.92,SW,217,0.0,10.0,88,0.00,,---,0.00,VWS V14.01,2013-06-17 02:55:00,
2013-06-16 22:00:00,82.7,78.4,29.92,SW,236,0.0,6.0,87,0.00,,---,0.00,VWS V14.01,2013-06-17 03:00:00,
2013-06-16 22:05:00,82.8,78.5,29.92,SW,224,1.0,10.0,87,0.00,,---,0.00,VWS V14.01,2013-06-17 03:05:00,
2013-06-16 22:10:00,82.8,78.2,29.93,SW,233,2.0,10.0,86,0.00,,---,0.00,VWS V14.01,2013-06-17 03:10:00,
2013-06-16 22:15:00,82.9,78.3,29.93,WSW,248,2.0,10.0,86,0.00,,---,0.00,VWS V14.01,2013-06-17 03:15:00,
2013-06-16 22:20:00,82.9,77.9,29.93,SW,234,0.0,10.0,85,0.00,,---,0.00,VWS V14.01,2013-06-17 03:20:00,
2013-06-16 22:25:00,82.9,77.9,29.92,SW,231,0.0,10.0,85,0.00,,---,0.00,VWS V14.01,2013-06-17 03:25:00,
2013-06-16 22:30:00,82.9,77.9,29.92,WSW,244,6.0,6.0,85,0.00,,---,0.00,VWS V14.01,2013-06-17 03:30:00,
2013-06-16 22:35:00,82.9,78.3,29.92,SW,228,0.0,6.0,86,0.00,,---,0.00,VWS V14.01,2013-06-17 03:35:00,
2013-06-16 22:40:00,82.9,78.3,29.92,SSW,209,6.0,7.0,86,0.00,,---,0.00,VWS V14.01,2013-06-17 03:40:00,
2013-06-16 22:45:00,82.8,77.8,29.92,SSW,211,3.0,7.0,85,0.00,,---,0.00,VWS V14.01,2013-06-17 03:45:00,
2013-06-16 22:50:00,82.9,77.9,29.92,SW,217,6.0,13.0,85,0.00,,---,0.00,VWS V14.01,2013-06-17 03:50:00,
2013-06-16 22:55:00,82.9,77.9,29.93,WSW,246,7.0,13.0,85,0.00,,---,0.00,VWS V14.01,2013-06-17 03:55:00,
2013-06-16 23:00:00,82.9,77.9,29.93,West,259,0.0,4.0,85,0.00,,---,0.00,VWS V14.01,2013-06-17 04:00:00,
2013-06-16 23:01:00,82.9,77.9,29.93,West,275,6.0,6.0,85,0.00,,---,0.00,VWS V14.01,2013-06-17 04:01:00,
2013-06-16 23:06:00,82.9,77.6,29.93,SW,234,3.0,9.0,84,0.00,,---,0.00,VWS V14.01,2013-06-17 04:06:00,
2013-06-16 23:11:00,82.8,77.1,29.92,WSW,252,0.0,11.0,83,0.00,,---,0.00,VWS V14.01,2013-06-17 04:11:00,
2013-06-16 23:16:00,82.8,77.1,29.92,SW,229,0.0,11.0,83,0.00,,---,0.00,VWS V14.01,2013-06-17 04:16:00,
2013-06-16 23:21:00,82.7,77.0,29.92,SW,225,0.0,11.0,83,0.00,,---,0.00,VWS V14.01,2013-06-17 04:21:00,
2013-06-16 23:26:00,82.6,76.9,29.92,SW,234,0.0,11.0,83,0.00,,---,0.00,VWS V14.01,2013-06-17 04:26:00,
2013-06-16 23:31:00,82.6,76.9,29.92,WSW,251,3.0,4.0,83,0.00,,---,0.00,VWS V14.01,2013-06-17 04:31:00,
2013-06-16 23:36:00,82.5,76.8,29.92,WSW,254,0.0,7.0,83,0.00,,---,0.00,VWS V14.01,2013-06-17 04:36:00,
2013-06-16 23:41:00,82.5,76.8,29.92,WSW,249,0.0,7.0,83,0.00,,---,0.00,VWS V14.01,2013-06-17 04:41:00,
2013-06-16 23:46:00,82.4,77.1,29.92,WSW,249,1.0,7.0,84,0.00,,---,0.00,VWS V14.01,2013-06-17 04:46:00,
2013-06-16 23:51:00,82.4,77.1,29.93,WSW,248,1.0,7.0,84,0.00,,---,0.00,VWS V14.01,2013-06-17 04:51:00,
2013-06-16 23:56:00,82.3,77.3,29.93,WSW,248,0.0,7.0,85,0.00,,---,0.00,VWS V14.01,2013-06-17 04:56:00,